Regional Weather Roundup
Issued by NWS

Home | Current Version | Previous Version | Graphics & Text | Print | Product List | Glossary On
Versions: 1 2 3 4 5 6 7 8 9 10 11 12 13 14 15 16 17 18 19 20 21 22 23 24 25 26 27 28 29 30 31 32 33 34 35 36 37 38 39 40 41 42 43 44 45 46 47 48 49 50
000
ASUS43 KMKX 081600
RWRWI

WISCONSIN REGIONAL WEATHER ROUNDUP
NATIONAL WEATHER SERVICE MILWAUKEE/SULLIVAN WI
1000 AM CST MON FEB 08 2016

NOTE: "FAIR" INDICATES FEW OR NO CLOUDS BELOW 12,000 FEET WITH NO
SIGNIFICANT WEATHER AND/OR OBSTRUCTIONS TO VISIBILITY.

WIZ001-002-006>008-014>016-023>028-081700-
NORTHWEST WISCONSIN

CITY           SKY/WX    TMP DP  RH WIND       PRES   REMARKS
SUPERIOR ARPT  LGT SNOW  11   4  73 NW16G24   29.90R WCI  -5
ASHLAND        LGT SNOW  17  11  77 NW13      29.83R WCI   4
HAYWARD        LGT SNOW  13   6  74 NW7       29.81R WCI   3
SIREN          LGT SNOW  11   3  70 N12G21    29.89R WCI  -3
CUMBERLAND     CLOUDY    12   5  73 N20G26    29.82R HAZE    WCI  -6
RICE LAKE      FLURRIES  13   6  73 NW12G21   29.84R WCI  -1
CHETEK         FLURRIES  13   7  76 NW9G17    29.82R WCI   1
LADYSMITH      LGT SNOW  15  10  79 NW16      29.78R WCI  -1
EAU CLAIRE     NOT AVBL
MENOMONIE      FLURRIES  15   6  68 NW18G26   29.84R WCI  -2
NEW RICHMOND   LGT SNOW  11   4  73 N17       29.88R WCI  -6
OSCEOLA        FLURRIES  11   3  70 N16G23    29.93R WCI  -5
$$

WIZ003>005-009-010-017-018-081700-
NORTH CENTRAL WISCONSIN

CITY           SKY/WX    TMP DP  RH WIND       PRES   REMARKS
MANITOWISH WTR LGT SNOW  18  15  90 NW12G18   29.68R WCI   5
ARBOR VITAE    CLOUDY    22  19  87 N12       29.67S WCI  10
WOODRUFF       CLOUDY    22  19  87 N12       29.67S WCI  10
RHINELANDER    CLOUDY    20  14  77 N8G20     29.67R WCI  10
EAGLE RIVER    LGT SNOW  19  13  79 N12       29.65S WCI   6
LAND O LAKES   LGT SNOW  19  14  82 N13G18    29.67R WCI   6
PHILLIPS       CLOUDY    18  15  89 N9G17     29.70R WCI   6
TOMAHAWK       CLOUDY    21  16  81 N9G17     29.68R WCI  11
MEDFORD        CLOUDY    18  14  84 NW12      29.67S WCI   6
MERRILL        CLOUDY    24  17  75 N12G18    29.67R WCI  13
$$

WIZ029-030-035-036-043>047-081700-
CENTRAL WISCONSIN

CITY           SKY/WX    TMP DP  RH WIND       PRES   REMARKS
WAUSAU         CLOUDY    26  19  74 NW14      29.64R WCI  14
MOSINEE        NOT AVBL
MARSHFIELD     CLOUDY    19  11  70 NW21      29.68R WCI   3
STEVENS POINT  CLOUDY    22  16  79 W8        29.66R WCI  12
WAUPACA        FLURRIES  26  19  76 W8        29.65S WCI  18
WAUTOMA        NOT AVBL
WISC RAPIDS    CLOUDY    22  14  71 NW14      29.70R WCI   9
CAMP DOUGLAS   NOT AVBL
$$

WIZ011>013-019>022-031-037>040-048>050-081700-
NORTHEAST WISCONSIN

CITY           SKY/WX    TMP DP  RH WIND       PRES   REMARKS
ANTIGO         CLOUDY    22  19  85 N15G21    29.62R WCI   9
SHAWANO        CLOUDY    32  25  74 W5        29.63R WCI  27
OCONTO         CLOUDY    32  32 100 W3        29.61R
STURGEON BAY   CLOUDY    34  27  75 NW7       29.62R WCI  28
GREEN BAY      FLURRIES  31  25  78 NW9       29.62R WCI  23
MANITOWOC      NOT AVBL
APPLETON       CLOUDY    27  19  74 W14       29.61R WCI  15
CLINTONVILLE   CLOUDY    28  21  74 NW10      29.63R WCI  19
OSHKOSH        CLOUDY    25  17  72 W15       29.64R WCI  13
$$

WIZ032>034-041-042-053>061-081700-
SOUTHWEST WISCONSIN

CITY           SKY/WX    TMP DP  RH WIND       PRES   REMARKS
LA CROSSE      FLURRIES  18  10  71 NW16      29.80S WCI   3
SPARTA         FLURRIES  18  12  79 NW10G21   29.77S WCI   6
VIROQUA        CLOUDY    17  11  80 NW16G24   29.72R WCI   1
BOSCOBEL       CLOUDY    21  13  71 N13       29.78R WCI   9
PRAIRIE DU CHI MIX PCPN  20  11  68 NW13G18   29.79R WCI   7
PLATTEVILLE    MOSUNNY   19  14  82 NW13      29.72R WCI   5
$$

WIZ056-057-062-063-064-067-068-081700-
SOUTH CENTRAL WISCONSIN

CITY           SKY/WX    TMP DP  RH WIND       PRES   REMARKS
REEDSBURG      CLOUDY    19  13  77 NW9       29.71R WCI   9
BARABOO/DELLS  CLOUDY    20  13  76 NW12      29.69S WCI   7
LONE ROCK      CLOUDY    21  13  71 NW9       29.74R WCI  11
MINERAL POINT  FLURRIES  23  14  68 NW17      29.70R WCI   9
MADISON        FLURRIES  21  14  74 NW13      29.69R WCI   9
MIDDLETON      CLOUDY    23  16  77 NW12G18   29.69R WCI  11
WATERTOWN      CLOUDY    24  20  86 W13       29.66R WCI  12
MONROE         CLOUDY    23  18  80 NW9G20    29.67R HAZE    WCI  13
JANESVILLE     CLOUDY    25  19  80 NW14      29.67R WCI  13
$$

WIZ051-052-058>065-066-070>072-081700-
SOUTHEAST WISCONSIN

CITY           SKY/WX    TMP DP  RH WIND       PRES   REMARKS
MILWAUKEE      LGT SNOW  29  25  85 NW12      29.63R WCI  19
WAUKESHA       CLOUDY    25  23  93 W10G16    29.65R VSB 1/4 WCI  15
MILWAUKEE/TIMM CLOUDY    28  21  74 NW9       29.64R WCI  20
RACINE         FLURRIES  30  23  75 NW10      29.65R WCI  21
BURLINGTON     CLOUDY    27  24  89 NW12      29.64R WCI  16
KENOSHA        CLOUDY    30  25  81 NW10      29.64R WCI  21
FOND DU LAC    CLOUDY    25  19  78 NW13      29.65  WCI  14
SHEBOYGAN      CLOUDY    28  22  78 MISG      29.62R
WEST BEND      FLURRIES  28  21  74 NW14      29.63R WCI  17
JUNEAU         LGT SNOW  23  18  83 NW10G16   29.66R WCI  12
$$

LSZ147-162-081700-
LAKE SUPERIOR

STATION/POSITION TIME  TEMP    WIND        PRES    WAVE
                       AIR SEA DIR/SP/G            HT/PER
                 (UTC) (F)     (DEG/KT/KT) (MB)    (FT/S)
DEVILS ISLAND    1500   16     360/ 19/ 21 1011.1R
PORT WING        1500   17     320/ 18/ 20 1010.8R
SAXON HARBOR     1540   19                 1009.1R
$$

LMZ867-665-643>646-081700-
LAKE MICHIGAN

STATION/POSITION TIME  TEMP    WIND        PRES    WAVE
                       AIR SEA DIR/SP/G            HT/PER
                 (UTC) (F)     (DEG/KT/KT) (MB)    (FT/S)
CHAMBERS ISLAND  1500   33     320/  7/  7 1002.7R
NORTHPORT PIER   1500   33     340/  8/  9 1002.4R
ALGOMA LAKESHORE 1511          330/  7/  9   N/A
KEWAUNEE LAKESHO 1500   33     290/  9/ 11 1001.4R
SHEBOYGAN LAKESH 1500   30     310/  8/ 11 1003.5R
PORT WASHINGTON  1500   30     300/  9/ 14 1003.7R
MILWAUKEE LAKESH 1510   30     300/  7/  9   N/A
KENOSHA   LAKESH 1500   30     280/  7/ 12 1003.4R
$$

TC  - TEMPERATURE IN CELSIUS
VSB - VISIBILITY IN STATUTE MILES
WCI - WIND CHILL INDEX
HX  - HEAT INDEX




USA.gov is the U.S. government's official web portal to all federal, state and local government web resources and services.